EN

Hourly Weather Aliabad

Today, 25 January, Monday

Time Temperature Precipitation Wind Pressure Humidity
00:00 +2°C° 0 mm 0 mps 743 mmHg 43%
01:00 +2°C° 0 mm 0 mps 743 mmHg 43%
02:00 +2°C° 0 mm 0 mps 742 mmHg 43%
03:00 +2°C° 0 mm 0 mps 742 mmHg 43%
04:00 +2°C° 0 mm 0 mps 742 mmHg 42%
05:00 +2°C° 0 mm 1 mps 742 mmHg 42%
06:00 +2°C° 0 mm 1 mps 742 mmHg 42%
07:00 +2°C° 0 mm 0 mps 742 mmHg 41%
08:00 +3°C° 0 mm 0 mps 742 mmHg 40%
09:00 +4°C° 0 mm 0 mps 742 mmHg 39%
10:00 +7°C° 0 mm 0 mps 742 mmHg 38%
11:00 +8°C° 0 mm 0 mps 741 mmHg 38%
12:00 +10°C° 0 mm 1 mps 741 mmHg 39%
13:00 +10°C° 0 mm 1 mps 740 mmHg 38%
14:00 +11°C° 0 mm 1 mps 740 mmHg 37%
15:00 +11°C° 0 mm 1 mps 740 mmHg 37%
16:00 +9°C° 0 mm 1 mps 740 mmHg 38%
17:00 +8°C° 0 mm 1 mps 740 mmHg 39%
18:00 +7°C° 0 mm 1 mps 740 mmHg 40%
19:00 +6°C° 0 mm 1 mps 741 mmHg 40%
20:00 +6°C° 0 mm 1 mps 741 mmHg 40%
21:00 +6°C° 0 mm 1 mps 741 mmHg 40%
22:00 +6°C° 0 mm 1 mps 741 mmHg 40%
23:00 +5°C° 0 mm 1 mps 741 mmHg 40%

Tomorrow, 26 January, Tuesday

Time Temperature Precipitation Wind Pressure Humidity
00:00 +5°C° 0 mm 1 mps 741 mmHg 40%
01:00 +5°C° 0 mm 1 mps 741 mmHg 40%
02:00 +5°C° 0 mm 1 mps 741 mmHg 40%
03:00 +4°C° 0 mm 2 mps 741 mmHg 40%
04:00 +4°C° 0 mm 2 mps 741 mmHg 40%
05:00 +4°C° 0 mm 2 mps 741 mmHg 40%
06:00 +4°C° 0 mm 2 mps 741 mmHg 40%
07:00 +5°C° 0 mm 2 mps 741 mmHg 39%
08:00 +6°C° 0 mm 2 mps 741 mmHg 39%
09:00 +9°C° 0 mm 1 mps 741 mmHg 38%
10:00 +10°C° 0 mm 1 mps 740 mmHg 37%
11:00 +12°C° 0 mm 1 mps 740 mmHg 36%
12:00 +13°C° 0 mm 1 mps 740 mmHg 35%
13:00 +13°C° 0 mm 1 mps 740 mmHg 34%
14:00 +14°C° 0 mm 1 mps 739 mmHg 34%
15:00 +13°C° 0 mm 0 mps 739 mmHg 33%
16:00 +12°C° 0 mm 1 mps 739 mmHg 34%
17:00 +11°C° 0 mm 1 mps 740 mmHg 35%
18:00 +10°C° 0 mm 1 mps 740 mmHg 36%
19:00 +9°C° 0 mm 1 mps 740 mmHg 36%
20:00 +9°C° 0 mm 1 mps 740 mmHg 36%
21:00 +9°C° 0 mm 1 mps 740 mmHg 36%
22:00 +9°C° 0 mm 1 mps 740 mmHg 37%
23:00 +8°C° 0 mm 1 mps 740 mmHg 37%

Day after tomorrow, 27 January, Wednesday

Time Temperature Precipitation Wind Pressure Humidity
00:00 +8°C° 0 mm 1 mps 740 mmHg 38%
01:00 +7°C° 0 mm 0 mps 740 mmHg 38%
02:00 +7°C° 0 mm 0 mps 739 mmHg 38%
03:00 +6°C° 0 mm 0 mps 739 mmHg 39%
04:00 +6°C° 0 mm 0 mps 739 mmHg 39%
05:00 +6°C° 0 mm 0 mps 739 mmHg 39%
06:00 +6°C° 0 mm 0 mps 739 mmHg 40%
07:00 +7°C° 0 mm 0 mps 739 mmHg 40%
08:00 +8°C° 0 mm 0 mps 739 mmHg 40%
09:00 +9°C° 0 mm 0 mps 739 mmHg 40%
10:00 +10°C° 0 mm 0 mps 738 mmHg 40%
11:00 +11°C° 0 mm 0 mps 738 mmHg 40%
12:00 +12°C° 0 mm 0 mps 737 mmHg 40%
13:00 +12°C° 0 mm 0 mps 737 mmHg 40%
14:00 +12°C° 0 mm 0 mps 736 mmHg 39%
15:00 +13°C° 0 mm 0 mps 736 mmHg 38%
16:00 +11°C° 0 mm 0 mps 736 mmHg 40%
17:00 +10°C° 0 mm 0 mps 736 mmHg 43%
18:00 +9°C° 0 mm 0 mps 735 mmHg 45%
19:00 +9°C° 0 mm 0 mps 735 mmHg 45%
20:00 +9°C° 0 mm 1 mps 735 mmHg 45%
21:00 +9°C° 0 mm 1 mps 735 mmHg 45%
22:00 +9°C° 0 mm 1 mps 734 mmHg 45%
23:00 +9°C° 0 mm 1 mps 734 mmHg 45%

28 January, Thursday

Time Temperature Precipitation Wind Pressure Humidity
00:00 +9°C° 0 mm 1 mps 733 mmHg 44%
01:00 +9°C° 0 mm 1 mps 733 mmHg 45%
02:00 +9°C° 0 mm 1 mps 732 mmHg 46%
03:00 +9°C° 0 mm 1 mps 732 mmHg 47%
04:00 +8°C° 0.2 mm 2 mps 732 mmHg 51%
05:00 +8°C° 0.2 mm 2 mps 732 mmHg 54%
06:00 +8°C° 0.2 mm 2 mps 732 mmHg 58%
07:00 +8°C° 0 mm 2 mps 731 mmHg 57%
08:00 +10°C° 0 mm 1 mps 731 mmHg 55%
09:00 +9°C° 0 mm 0 mps 731 mmHg 54%
10:00 +11°C° 0 mm 1 mps 730 mmHg 52%
11:00 +12°C° 0 mm 1 mps 730 mmHg 51%
12:00 +13°C° 0 mm 1 mps 729 mmHg 49%
13:00 +14°C° 0 mm 1 mps 729 mmHg 49%
14:00 +14°C° 0 mm 1 mps 729 mmHg 49%
15:00 +14°C° 0 mm 1 mps 728 mmHg 49%
16:00 +13°C° 0.1 mm 1 mps 729 mmHg 52%
17:00 +12°C° 0.1 mm 1 mps 729 mmHg 54%
18:00 +12°C° 0.1 mm 1 mps 729 mmHg 57%
19:00 +11°C° 0.1 mm 1 mps 729 mmHg 59%
20:00 +11°C° 0.1 mm 1 mps 729 mmHg 61%
21:00 +11°C° 0.1 mm 1 mps 729 mmHg 63%

29 January, Friday

Time Temperature Precipitation Wind Pressure Humidity

30 January, Saturday

Time Temperature Precipitation Wind Pressure Humidity
Show more